Location: Chiroubles
(46.1812°N, 4.6660°E)
Time: 05:35:05
(UTC+00:00)

Transit 4A - Pass Details

Date: 09 December 2020
Orbit: 864 x 980 km, 66.8° (Epoch: 25 January)

Event Time Altitude Azimuth Distance (km) Brightness Sun altitude
Rises 13:03:55 0° 328° (NNW) 3,684 10.7 18.0°
Reaches altitude 10° 13:06:38 10° 334° (NNW) 2,725 10.0 17.8°
Maximum altitude 13:12:47 48° 48° (NE) 1,241 8.4 17.4°
Drops below altitude 10° 13:18:44 10° 122° (ESE) 2,647 10.4 17.0°
Sets 13:21:20 0° 128° (SE) 3,570 11.1 16.8°
